Hourly Data Report for October 12, 2014

All times are specified in Local Standard Time (LST). Add 1 hour to adjust for Daylight Saving Time where and when it is observed.

QIKIQTARJUAQ A
NUNAVUT

67°32'48.000" N
64°01'54.000" W
5.50 m
2400577
YVM

Download Data

Hourly Data (October 2014)
Hourly Data Report for October 12, 2014
Temp Definition
°C
Dew Point Temp Definition
°C
Rel Hum Definition
%
Wind Dir Definition
10's deg

Wind Spd Definition
km/h
Visibility Definition
km
Stn Press Definition
kPa
Hmdx Definition


Wind Chill Definition


Weather Definition


TIME
00:00 Legend Double Dagger 2.0 0.7 91 LegendMM 17 6.4 99.52     Rain,Fog
01:00 Legend Double Dagger 1.4 0.4 93 12 28 16.1 99.41     LegendNANA
02:00 Legend Double Dagger 1.4 -0.7 86 21 18 16.1 99.35     Rain
03:00 Legend Double Dagger 0.2 -2.1 84 21 43 2.8 99.43     Snow
04:00 Legend Double Dagger -0.2 -4.4 73 20 34 16.1 99.69   -7 LegendNANA
05:00 Legend Double Dagger -0.2 -6.2 64 17 48 16.1 99.88   -8 LegendNANA
06:00 Legend Double Dagger -0.9 -7.3 62 16 35 16.1 100.16   -8 LegendNANA
07:00 Legend Double Dagger -0.5 -7.5 59 16 41 16.1 100.23   -8 LegendNANA
08:00 Legend Double Dagger -0.3 -7.1 60 17 32 16.1 100.38   -7 LegendNANA
09:00 Legend Double Dagger -0.7 -6.9 63 14 26 16.1 100.51   -7 LegendNANA
10:00 Legend Double Dagger 0.6 -6.7 58 15 21 16.1 100.57     LegendNANA
11:00 Legend Double Dagger 0.8 -4.8 66 15 21 16.1 100.60     LegendNANA
12:00 Legend Double Dagger 1.0 -4.1 69 18 22 16.1 100.64     LegendNANA
13:00 Legend Double Dagger 1.0 -5.3 63 16 22 16.1 100.66     LegendNANA
14:00 Legend Double Dagger 0.7 -5.5 63 16 28 16.1 100.70     LegendNANA
15:00 Legend Double Dagger 0.9 -6.0 60 16 32 16.1 100.73     LegendNANA
16:00 Legend Double Dagger 0.9 -5.2 64 15 34 16.1 100.79     LegendNANA
17:00 Legend Double Dagger 0.5 -5.2 66 15 28 16.1 100.85     LegendNANA
18:00 Legend Double Dagger 0.0 -5.0 69 16 30 16.1 100.90   -6 LegendNANA
19:00 Legend Double Dagger 1.1 -6.0 59 16 28 16.1 100.93     LegendNANA
20:00 Legend Double Dagger 1.4 -5.7 59 16 24 16.1 100.98     LegendNANA
21:00 Legend Double Dagger 1.0 -4.9 65 16 9 16.1 101.01     LegendNANA
22:00 Legend Double Dagger 0.4 -4.1 72 21 18 16.1 101.03     LegendNANA
23:00 Legend Double Dagger 0.2 -4.1 73 22 18 16.1 101.04     LegendNANA

Notes on Data Quality.

Legend

  • E = Estimated
  • M = Missing
  • NA = Not Available
  • ‡ = Partner data that is not subject to review by the National Climate Archives
Date modified: